sat.trackr.live / text

‹ back to catalog

STARLINK-34040

NORAD 63839 · 2025-093D

PAYLOAD ACTIVE UNKNOWN

§ Identity

Operator
Country
US
Launch date
2025-05-07
Launch site
AFETR
Launch vehicle
Mass (kg)
RCS (m²)

Purposes: comms

External: N2YO · Heavens-Above · Gunter

§ Orbital elements

Epoch: 2026-09-19T18:14:58.240320Z

Period
94.27 min
Inclination
43.0037°
Eccentricity
0.0001595
Mean motion
15.27594687 rev/d
Perigee alt
481.9 km
Apogee alt
484.1 km
Semi-major
6,861.1 km
B*
4.5894e-4
RAAN
61.8222°
Arg perigee
268.4954°
Mean anomaly
91.5715°
Rev number
7,765

§ Raw data

STARLINK-340401 63839U 25093D   26262.76039630  .00012394  00000+0  45894-3 0  99912 63839  43.0037  61.8222 0001595 268.4954  91.5715 15.27594687 77654

JSON: /api/v1/satellites/63839 · /tle

For live sub-satellite position, see the globe view (requires WebGL).

§ Visibility from observer

Set your observer location to see the next 7 days of passes ≥ 10°. The values pass through the URL so the page stays shareable.

No JS? Fill the form by hand. The geolocation button needs JavaScript.